Regional Weather Roundup
Issued by NWS

Home | Current Version | Previous Version | Text Only | Print | Product List | Glossary Off
Versions: 1 2 3 4 5 6 7 8 9 10 11 12 13 14 15 16 17 18 19 20 21 22 23 24 25 26 27 28 29 30 31 32 33 34 35 36 37 38 39 40 41 42 43 44 45 46 47 48 49 50

000
ASUS43 KLMK 290702
RWRKY
KENTUCKY REGIONAL WEATHER ROUNDUP
NATIONAL WEATHER SERVICE LOUISVILLE KY
300 AM EDT WED JUL 29 2015

NOTE "FAIR" INDICATES FEW OR NO CLOUDS BELOW 12,000 FEET
WITH NO SIGNIFICANT WEATHER AND/OR OBSTRUCTIONS TO VISIBILITY.

KYZ001>023-026-027-061>063-070>075-290800-
WESTERN AND SOUTH CENTRAL KENTUCKY

CITY           SKY/WX    TMP DP  RH WIND       PRES   REMARKS
PADUCAH        MOCLDY    76  71  85 SW3       29.96F
HENDERSON      MOCLDY    73  70  88 CALM      29.95F
OWENSBORO      NOT AVBL
HOPKINSVILLE   PTCLDY    73  72  95 CALM      29.98F
BOWLING GREEN  PTCLDY    74  71  91 CALM      29.99F
GLASGOW        NOT AVBL
$$

KYZ024-025-028>034-038-045-046-053-290800-
NORTH CENTRAL KENTUCKY

CITY           SKY/WX    TMP DP  RH WIND       PRES   REMARKS
LOUISVILLE/SDF MOCLDY    79  74  84 W6        29.96F
LOUISVILLE/LOU PTCLDY    79  74  84 CALM      29.97F
FORT KNOX      PTCLDY    74  72  94 W2        29.96F
$$

KYZ035>037-039>044-047>052-055>060-089>105-290800-
NORTHEAST KENTUCKY

CITY           SKY/WX    TMP DP  RH WIND       PRES   REMARKS
LEXINGTON      PTCLDY    72  71  97 S3        30.00F
COVINGTON      PTCLDY    76  73  91 CALM      29.97F
FRANKFORT      CLEAR     74  71  91 CALM      29.97F
$$

KYZ054-064>069-076>088-106>120-290800-
SOUTHEAST KENTUCKY

CITY           SKY/WX    TMP DP  RH WIND       PRES   REMARKS
JACKSON        MOCLDY    73  71  93 W5        30.02F FOG
LONDON         FOG       72  68  87 S3        30.02F VSB 1
SOMERSET       NOT AVBL
MIDDLESBORO    NOT AVBL
MONTICELLO     SUNNY     72  72 100 CALM      30.03F FOG
$$




USA.gov is the U.S. government's official web portal to all federal, state and local government web resources and services.